Regional Weather Roundup
Issued by NWS

Home | Current Version | Previous Version | Text Only | Print | Product List | Glossary On
Versions: 1 2 3 4 5 6 7 8 9 10 11 12 13 14 15 16 17 18 19 20 21 22 23 24 25 26 27 28 29 30 31 32 33 34 35 36 37 38 39 40 41 42 43 44 45 46 47 48 49 50
000
ASUS44 KLIX 300311
RWRLA
LOUISIANA WEATHER ROUNDUP
NATIONAL WEATHER SERVICE NEW ORLEANS LA
1000 PM CDT MON JUN 29 2015

NOTE: "FAIR" INDICATES FEW OR NO CLOUDS BELOW 12,000 FEET WITH NO
      SIGNIFICANT WEATHER AND/OR OBSTRUCTIONS TO VISIBILITY.
      SKY/WX - SKY CONDITION AND SIGNIFICANT WEATHER.
      TMP - AIR TEMPERATURE.    DP   - DEWPOINT TEMPERATURE.
      RH  - RELATIVE HUMIDITY.  PRES - PRESSURE.
      HX  - HEAT INDEX.         WCI  - WIND CHILL INDEX.

*  THESE STATIONS ARE NOT NWS OR FAA STATIONS AND ARE NOT UNDER
   NWS QUALITY CONTROL.

LAZ040-048-061>063-065-066-069-300400-
SOUTHEAST LOUISIANA

CITY           SKY/WX    TMP DP  RH WIND       PRES   REMARKS
N.O. AUDUBON     N/A     81  76  84 MISG        N/A
N.O. INTL ARPT MOCLDY    81  72  74 W9        30.02R
N.O. LAKEFRONT CLEAR     85  73  67 SW15      30.02R
N.O. DOWNTOWN* FAIR      84  72  65 SW6       30.03R
RESERVE*       NOT AVBL
SLIDELL        CLEAR     78  77  96 CALM      29.99R
BATON ROUGE    PTCLDY    81  75  82 SW13      30.00S THUNDER
BOOTHVILLE     CLEAR     84  75  74 SW14G21   30.03R
BELLE CHASSE   PTCLDY    80  74  81 SW6       30.02R
BOGALUSA*        N/A     79  73  84 SW5       30.00F
GALLIANO*      PTCLDY    83  75  77 SW5       30.03R
NEW ROADS*     FAIR     N/A N/A N/A CALM      30.02R
GONZALES*      FAIR      80  76  87 S5        30.01S
HAMMOND*       PTCLDY    82  73  74 SW7       30.02S
HOUMA*         CLEAR     79  74  86 CALM      30.03R
PORT FOURCHON* CLEAR     84  75  74 SW8       30.03R

$$

LAZ041-044-053-054-300400-
SOUTHWEST LOUISIANA

CITY           SKY/WX    TMP DP  RH WIND       PRES   REMARKS
LAKE CHARLES   PTCLDY    82  77  84 SW5       30.00R
LAFAYETTE      PTCLDY    81  75  82 SW5       30.02R
PATTERSON      PTCLDY    79  73  83 SW3       30.04R
SALT POINT       N/A     84  76  76 SW6       30.01R
NEW IBERIA     CLEAR     80  77  90 SW3       30.03R
CHENAULT AIRPK PTCLDY    82  77  83 SW7       30.01

$$

LAZ027-028-300400-
CENTRAL LOUISIANA

CITY           SKY/WX    TMP DP  RH WIND       PRES   REMARKS
FORT POLK      CLOUDY    78  75  91 S8        29.98R
ALEXANDRIA INT MOCLDY    80  74  81 CALM      29.98R
ALEXANDRIA     MOCLDY    79  71  76 SE3       30.01R

$$

LAZ001-002-300400-
NORTHWEST LOUISIANA

CITY           SKY/WX    TMP DP  RH WIND       PRES   REMARKS
SHREVEPORT     CLOUDY    77  74  90 CALM      29.95R
BARKSDALE AFB  CLOUDY    77  73  87 SE3       29.96R
DTN SHREVEPORT CLOUDY    79  73  82 SW5       29.96R

$$

LAZ014-016-300400-
NORTHEAST LOUISIANA

CITY           SKY/WX    TMP DP  RH WIND       PRES   REMARKS
MONROE         PTCLDY    75  68  78 S6        29.98R
TALLULAH       CLOUDY    73  69  87 VRB3      29.96S

$$




USA.gov is the U.S. government's official web portal to all federal, state and local government web resources and services.